User: anonymous   Login
Location: *
(43.6428°N, 11.5461°E)
Time: 15:29:44
(UTC+00:00)
Language:

COBE Rocket - Orbit

View from above orbital plane
View from above orbital plane
View from above satellite
View from above satellite

Ground track
Ground track

The orbit data is extracted from the following two-line orbital elements,

1 20323U 89089B   19348.03213626  .00000011  00000-0  11554-4 0  9994
2 20323  97.0656 158.9572 0073243  97.7939 263.1581 14.48326055586413
Epoch (UTC): 14 December 2019 00:46:16
Eccentricity: 0.0073243
inclination: 97.0656°
perigee height: 679 km
apogee height: 783 km
right ascension of ascending node: 158.9572°
argument of perigee: 97.7939°
revolutions per day: 14.48326055
mean anomaly at epoch: 263.1581°
orbit number at epoch: 58641

The dashed part of the orbit path shows where the satellite is in the earth's shadow,  

DLR